Location: Bluff Heights
(33.7692°N, 118.1592°W)
Time: 19:23:32
(UTC+00:00)

First-Move - Pass Details

Date: 04 October 2021
Orbit: 574 x 666 km, 97.6° (Epoch: 17 October)

Event Time Altitude Azimuth Distance (km) Brightness Sun altitude
Rises 11:55:56 0° 21° (NNE) 2,810 ? -24.3°
Reaches altitude 10° 11:58:15 10° 30° (NNE) 1,897 ? -23.8°
Maximum altitude 12:02:03 37° 98° (E) 910 ? -23.1°
Drops below altitude 10° 12:05:48 10° 166° (SSE) 1,873 ? -22.3°
Sets 12:08:03 0° 175° (S) 2,768 ? -21.8°
